�������l�o���
Date,Time,MP-1(��Sv/h),MP-2(��Sv/h),MP-3(��Sv/h),MP-4(��Sv/h),MP-5(��Sv/h),MP-6(��Sv/h),MP-7(��Sv/h),MP-8(��Sv/h),����,����(m/s),���J
2020/09/12,00:00,0.662,0.936,0.604,1.160,0.835,0.381,0.667,0.628,�k�k��,4.1,��
2020/09/12,00:10,0.662,0.935,0.605,1.160,0.839,0.380,0.667,0.628,�k�k��,5.3,�L
2020/09/12,00:20,0.662,0.937,0.605,1.161,0.836,0.380,0.666,0.627,�k,5.3,�L
2020/09/12,00:30,0.662,0.938,0.604,1.162,0.837,0.381,0.667,0.627,�k�k��,5.5,�L
2020/09/12,00:40,0.661,0.939,0.604,1.162,0.838,0.381,0.666,0.628,�k�k��,5.1,�L
2020/09/12,00:50,0.661,0.937,0.605,1.161,0.838,0.381,0.667,0.628,�k�k��,6.1,�L
2020/09/12,01:00,0.662,0.939,0.603,1.161,0.841,0.380,0.666,0.628,�k�k��,6.3,��
2020/09/12,01:10,0.662,0.938,0.604,1.162,0.836,0.381,0.666,0.627,�k�k��,6.4,��
2020/09/12,01:20,0.661,0.936,0.604,1.160,0.839,0.381,0.668,0.628,�k�k��,7.7,��
2020/09/12,01:30,0.663,0.939,0.604,1.165,0.837,0.380,0.669,0.628,�k�k��,6.8,��
2020/09/12,01:40,0.661,0.940,0.604,1.163,0.838,0.380,0.668,0.628,�k�k��,6.0,��
2020/09/12,01:50,0.663,0.940,0.603,1.163,0.838,0.380,0.667,0.628,�k�k��,6.6,��
2020/09/12,02:00,0.661,0.939,0.604,1.162,0.838,0.380,0.667,0.629,�k�k��,7.4,��
2020/09/12,02:10,0.662,0.938,0.604,1.162,0.838,0.380,0.667,0.629,�k�k��,6.9,��
2020/09/12,02:20,0.663,0.942,0.605,1.163,0.840,0.380,0.668,0.630,�k�k��,7.5,��
2020/09/12,02:30,0.662,0.939,0.604,1.162,0.839,0.380,0.669,0.626,�k�k��,6.8,��
2020/09/12,02:40,0.665,0.941,0.605,1.164,0.840,0.380,0.668,0.628,�k�k��,6.1,��
2020/09/12,02:50,0.662,0.940,0.607,1.165,0.840,0.381,0.668,0.627,�k�k��,7.4,��
2020/09/12,03:00,0.663,0.938,0.605,1.164,0.839,0.382,0.669,0.629,�k�k��,6.9,��
2020/09/12,03:10,0.665,0.942,0.607,1.163,0.838,0.381,0.668,0.629,�k�k��,8.1,��
2020/09/12,03:20,0.664,0.939,0.605,1.167,0.841,0.380,0.667,0.629,�k�k��,7.1,��
2020/09/12,03:30,0.662,0.942,0.606,1.165,0.839,0.380,0.668,0.632,�k��,7.3,��
2020/09/12,03:40,0.667,0.942,0.605,1.166,0.840,0.380,0.669,0.629,�k�k��,8.7,��
2020/09/12,03:50,0.662,0.941,0.606,1.167,0.841,0.381,0.669,0.631,�k�k��,9.3,�L
2020/09/12,04:00,0.665,0.941,0.606,1.165,0.839,0.381,0.668,0.628,�k�k��,8.8,�L
2020/09/12,04:10,0.661,0.937,0.605,1.166,0.840,0.380,0.667,0.627,�k�k��,6.9,�L
2020/09/12,04:20,0.662,0.938,0.604,1.166,0.840,0.381,0.667,0.628,�k�k��,7.8,�L
2020/09/12,04:30,0.662,0.938,0.602,1.167,0.839,0.381,0.668,0.625,�k�k��,8.6,�L
2020/09/12,04:40,0.661,0.937,0.604,1.165,0.839,0.380,0.669,0.628,�k�k��,8.6,�L
2020/09/12,04:50,0.661,0.937,0.603,1.164,0.838,0.380,0.669,0.629,�k�k��,7.8,�L
2020/09/12,05:00,0.661,0.937,0.604,1.165,0.838,0.380,0.666,0.628,�k�k��,8.0,�L
2020/09/12,05:10,0.661,0.939,0.604,1.165,0.838,0.380,0.667,0.627,�k�k��,6.8,��
2020/09/12,05:20,0.662,0.941,0.605,1.167,0.839,0.379,0.669,0.627,�k�k��,7.7,��
2020/09/12,05:30,0.662,0.938,0.606,1.165,0.839,0.381,0.669,0.628,�k�k��,7.1,�L
2020/09/12,05:40,0.662,0.940,0.605,1.165,0.839,0.382,0.666,0.630,�k�k��,7.2,�L
2020/09/12,05:50,0.662,0.940,0.604,1.165,0.838,0.382,0.668,0.630,�k�k��,6.9,�L
2020/09/12,06:00,0.662,0.939,0.605,1.166,0.841,0.382,0.669,0.627,�k�k��,6.9,��
2020/09/12,06:10,0.662,0.939,0.605,1.164,0.839,0.381,0.668,0.629,�k�k��,6.6,��
2020/09/12,06:20,0.663,0.940,0.605,1.170,0.839,0.381,0.668,0.628,�k�k��,7.2,��
2020/09/12,06:30,0.662,0.940,0.606,1.168,0.838,0.382,0.668,0.628,�k�k��,4.3,�L
2020/09/12,06:40,0.650,0.930,0.598,1.136,0.811,0.372,0.654,0.614,�k�k��,4.1,�L
2020/09/12,06:50,0.636,0.905,0.592,1.123,0.807,0.374,0.656,0.617,�k�k��,7.9,�L
2020/09/12,07:00,0.644,0.912,0.594,1.127,0.810,0.374,0.658,0.620,�k�k��,7.8,�L
2020/09/12,07:10,0.643,0.913,0.594,1.126,0.808,0.375,0.657,0.620,�k�k��,9.0,�L
2020/09/12,07:20,0.645,0.911,0.592,1.126,0.809,0.376,0.658,0.618,�k�k��,6.6,�L
2020/09/12,07:30,0.649,0.915,0.595,1.129,0.812,0.375,0.659,0.620,�k�k��,6.4,�L
2020/09/12,07:40,0.651,0.917,0.593,1.133,0.816,0.376,0.660,0.621,�k��,7.5,��
2020/09/12,07:50,0.652,0.920,0.596,1.136,0.817,0.377,0.660,0.622,�k�k��,7.3,��
2020/09/12,08:00,0.653,0.921,0.597,1.140,0.819,0.377,0.662,0.623,�k��,6.1,��
2020/09/12,08:10,0.654,0.918,0.598,1.141,0.819,0.378,0.660,0.621,�k�k��,6.7,��
2020/09/12,08:20,0.654,0.922,0.598,1.141,0.820,0.377,0.663,0.623,�k�k��,4.8,��
2020/09/12,08:30,0.656,0.924,0.597,1.143,0.820,0.378,0.662,0.622,�k,3.9,��
2020/09/12,08:40,0.657,0.924,0.598,1.142,0.822,0.378,0.661,0.623,�k,4.5,��
2020/09/12,08:50,0.656,0.923,0.598,1.143,0.822,0.378,0.663,0.624,�k,4.8,��
2020/09/12,09:00,0.657,0.925,0.596,1.144,0.823,0.379,0.664,0.623,�k,5.4,��
2020/09/12,09:10,0.657,0.926,0.597,1.144,0.822,0.379,0.664,0.624,�k,4.6,��
2020/09/12,09:20,0.658,0.926,0.599,1.143,0.825,0.379,0.663,0.625,�k�k��,4.4,��
2020/09/12,09:30,0.660,0.926,0.600,1.143,0.824,0.379,0.663,0.623,�k�k��,4.1,��
2020/09/12,09:40,0.659,0.923,0.599,1.144,0.826,0.379,0.664,0.625,�k�k��,3.9,��
2020/09/12,09:50,0.659,0.926,0.602,1.147,0.825,0.379,0.663,0.625,�k�k��,3.2,��
2020/09/12,10:00,0.656,0.929,0.600,1.147,0.826,0.380,0.666,0.625,�k,4.1,��
2020/09/12,10:10,0.661,0.930,0.598,1.146,0.824,0.379,0.666,0.627,�k�k��,4.3,��
2020/09/12,10:20,0.659,0.929,0.599,1.150,0.827,0.380,0.666,0.625,�k�k��,4.5,��
2020/09/12,10:30,0.661,0.929,0.601,1.147,0.828,0.380,0.665,0.625,�k,3.9,��
2020/09/12,10:40,0.659,0.931,0.601,1.150,0.828,0.380,0.664,0.626,�k�k��,4.0,��
2020/09/12,10:50,0.661,0.932,0.602,1.150,0.828,0.379,0.665,0.625,�k�k��,4.3,��
2020/09/12,11:00,0.660,0.929,0.601,1.152,0.828,0.379,0.665,0.625,�k�k��,3.9,��
2020/09/12,11:10,0.659,0.930,0.602,1.152,0.827,0.380,0.666,0.628,�k,4.5,�L
2020/09/12,11:20,0.655,0.923,0.595,1.145,0.821,0.378,0.662,0.622,�k�k��,6.1,�L
2020/09/12,11:30,0.649,0.912,0.590,1.129,0.807,0.374,0.656,0.618,�k,5.4,�L
2020/09/12,11:40,0.642,0.907,0.588,1.121,0.803,0.373,0.654,0.617,�k,6.9,�L
2020/09/12,11:50,0.641,0.901,0.588,1.116,0.803,0.373,0.656,0.614,�k,6.5,�L
2020/09/12,12:00,0.642,0.902,0.588,1.117,0.802,0.372,0.654,0.616,�k,5.7,�L
2020/09/12,12:10,0.646,0.905,0.592,1.120,0.805,0.374,0.654,0.618,�k,5.5,�L
2020/09/12,12:20,0.648,0.909,0.591,1.120,0.803,0.374,0.655,0.617,�k�k��,3.9,�L
2020/09/12,12:30,0.648,0.907,0.590,1.119,0.802,0.373,0.653,0.616,�k,3.0,�L
2020/09/12,12:40,0.646,0.903,0.590,1.116,0.796,0.371,0.647,0.613,�k�k��,4.7,�L
2020/09/12,12:50,0.643,0.903,0.587,1.111,0.796,0.372,0.653,0.616,�k�k��,5.4,�L
2020/09/12,13:00,0.646,0.905,0.589,1.118,0.796,0.376,0.654,0.618,�k��,5.6,�L
2020/09/12,13:10,0.649,0.908,0.591,1.120,0.804,0.375,0.656,0.617,�k��,4.1,��
2020/09/12,13:20,0.649,0.910,0.592,1.122,0.803,0.378,0.657,0.619,�k��,5.0,��
2020/09/12,13:30,0.650,0.912,0.592,1.126,0.805,0.375,0.657,0.619,�k��,4.6,�L
2020/09/12,13:40,0.651,0.911,0.593,1.131,0.807,0.376,0.656,0.621,���k��,3.1,��
2020/09/12,13:50,0.653,0.914,0.593,1.130,0.809,0.377,0.658,0.620,�k��,3.1,��
2020/09/12,14:00,0.652,0.916,0.594,1.132,0.806,0.377,0.659,0.621,�k��,3.0,��
2020/09/12,14:10,0.652,0.917,0.592,1.132,0.810,0.376,0.659,0.621,�k�k��,2.5,�L
2020/09/12,14:20,0.655,0.918,0.593,1.134,0.810,0.377,0.658,0.619,�k�k��,3.4,�L
2020/09/12,14:30,0.653,0.917,0.596,1.135,0.811,0.377,0.660,0.621,�k�k��,3.9,��
2020/09/12,14:40,0.655,0.918,0.593,1.137,0.809,0.377,0.661,0.623,�k�k��,3.3,��
2020/09/12,14:50,0.654,0.919,0.594,1.139,0.813,0.378,0.661,0.622,�k�k��,3.1,��
2020/09/12,15:00,0.654,0.918,0.595,1.139,0.813,0.378,0.660,0.623,�k�k��,3.7,��
2020/09/12,15:10,0.653,0.920,0.596,1.140,0.817,0.378,0.661,0.623,�k�k��,3.5,�L
2020/09/12,15:20,0.656,0.921,0.596,1.141,0.817,0.377,0.659,0.624,�k,2.9,�L
2020/09/12,15:30,0.656,0.922,0.595,1.141,0.816,0.379,0.660,0.624,�k,2.8,�L
2020/09/12,15:40,0.653,0.921,0.596,1.143,0.814,0.378,0.660,0.623,�k��,2.3,�L
2020/09/12,15:50,0.651,0.919,0.594,1.140,0.814,0.376,0.659,0.621,�k�k��,3.2,�L
2020/09/12,16:00,0.652,0.918,0.591,1.137,0.812,0.377,0.659,0.621,�k�k��,3.7,�L
2020/09/12,16:10,0.650,0.914,0.591,1.138,0.811,0.377,0.658,0.622,�k�k��,3.6,�L
2020/09/12,16:20,0.650,0.914,0.591,1.137,0.808,0.377,0.657,0.620,�k�k��,3.0,�L
2020/09/12,16:30,0.647,0.909,0.590,1.134,0.805,0.376,0.656,0.619,�k,3.3,�L
2020/09/12,16:40,0.643,0.906,0.587,1.127,0.800,0.375,0.654,0.617,�k,2.6,�L
2020/09/12,16:50,0.642,0.901,0.588,1.122,0.798,0.373,0.655,0.617,�k�k��,3.3,�L
2020/09/12,17:00,0.639,0.901,0.586,1.121,0.794,0.371,0.654,0.617,�k�k��,4.1,�L
2020/09/12,17:10,0.640,0.899,0.584,1.115,0.793,0.371,0.651,0.616,�k�k��,3.9,�L
2020/09/12,17:20,0.640,0.896,0.585,1.110,0.788,0.371,0.651,0.616,�k�k��,6.3,�L
2020/09/12,17:30,0.641,0.895,0.583,1.110,0.787,0.370,0.651,0.614,�k�k��,9.4,�L
2020/09/12,17:40,0.639,0.894,0.583,1.108,0.790,0.372,0.650,0.614,�k�k��,8.9,�L
2020/09/12,17:50,0.641,0.897,0.584,1.107,0.787,0.372,0.648,0.616,�k�k��,10.3,�L
2020/09/12,18:00,0.640,0.896,0.585,1.106,0.785,0.370,0.650,0.614,�k�k��,11.1,�L
2020/09/12,18:10,0.636,0.892,0.582,1.102,0.783,0.370,0.649,0.615,�k�k��,9.9,�L
2020/09/12,18:20,0.636,0.891,0.582,1.100,0.777,0.370,0.647,0.614,�k�k��,9.1,�L
2020/09/12,18:30,0.637,0.890,0.582,1.099,0.780,0.370,0.647,0.613,�k,10.0,�L
2020/09/12,18:40,0.636,0.890,0.582,1.096,0.775,0.369,0.647,0.613,�k,8.3,�L
2020/09/12,18:50,0.635,0.892,0.583,1.099,0.777,0.370,0.648,0.612,�k�k��,8.6,�L
2020/09/12,19:00,0.636,0.892,0.583,1.100,0.779,0.371,0.649,0.613,�k�k��,7.5,�L
2020/09/12,19:10,0.635,0.893,0.583,1.101,0.780,0.370,0.647,0.612,�k�k��,7.2,�L
2020/09/12,19:20,0.640,0.897,0.583,1.102,0.780,0.372,0.649,0.613,�k�k��,8.4,�L
2020/09/12,19:30,0.641,0.895,0.584,1.105,0.783,0.372,0.650,0.613,�k�k��,7.4,�L
2020/09/12,19:40,0.642,0.899,0.586,1.109,0.785,0.373,0.651,0.616,�k�k��,9.5,�L
2020/09/12,19:50,0.642,0.902,0.586,1.110,0.785,0.373,0.651,0.615,�k�k��,9.3,�L
2020/09/12,20:00,0.640,0.902,0.585,1.110,0.787,0.374,0.654,0.617,�k�k��,9.1,�L
2020/09/12,20:10,0.639,0.899,0.587,1.111,0.788,0.374,0.651,0.616,�k�k��,9.3,�L
2020/09/12,20:20,0.634,0.896,0.584,1.108,0.784,0.373,0.650,0.614,�k�k��,8.7,�L
2020/09/12,20:30,0.630,0.888,0.582,1.103,0.782,0.373,0.649,0.613,�k,9.7,�L
2020/09/12,20:40,0.629,0.887,0.582,1.098,0.779,0.371,0.648,0.614,�k,8.8,�L
2020/09/12,20:50,0.635,0.888,0.582,1.099,0.777,0.371,0.649,0.614,�k�k��,9.5,�L
2020/09/12,21:00,0.637,0.892,0.583,1.104,0.779,0.372,0.649,0.612,�k�k��,8.4,�L
2020/09/12,21:10,0.639,0.895,0.584,1.104,0.779,0.373,0.651,0.613,�k�k��,8.8,�L
2020/09/12,21:20,0.641,0.898,0.585,1.107,0.781,0.372,0.649,0.614,�k�k��,8.0,�L
2020/09/12,21:30,0.641,0.900,0.584,1.109,0.782,0.373,0.652,0.615,�k�k��,8.7,�L
2020/09/12,21:40,0.642,0.900,0.585,1.109,0.783,0.373,0.652,0.615,�k�k��,10.2,�L
2020/09/12,21:50,0.645,0.903,0.586,1.114,0.785,0.375,0.653,0.616,�k�k��,8.7,�L
2020/09/12,22:00,0.644,0.902,0.586,1.115,0.787,0.375,0.653,0.617,�k�k��,9.6,�L
2020/09/12,22:10,0.644,0.906,0.585,1.117,0.786,0.374,0.653,0.616,�k�k��,9.3,�L
2020/09/12,22:20,0.647,0.905,0.586,1.118,0.786,0.374,0.652,0.616,�k�k��,10.2,�L
2020/09/12,22:30,0.646,0.906,0.588,1.120,0.790,0.375,0.653,0.617,�k�k��,9.2,�L
2020/09/12,22:40,0.646,0.907,0.587,1.120,0.789,0.373,0.654,0.618,�k�k��,9.1,�L
2020/09/12,22:50,0.647,0.909,0.588,1.125,0.789,0.374,0.653,0.617,�k�k��,9.1,�L
2020/09/12,23:00,0.647,0.911,0.588,1.125,0.789,0.375,0.655,0.618,�k�k��,9.6,�L
2020/09/12,23:10,0.647,0.911,0.589,1.128,0.792,0.375,0.655,0.618,�k�k��,9.1,�L
2020/09/12,23:20,0.646,0.911,0.589,1.125,0.791,0.375,0.655,0.618,�k�k��,9.0,�L
2020/09/12,23:30,0.650,0.911,0.590,1.129,0.792,0.377,0.655,0.617,�k�k��,9.0,��
2020/09/12,23:40,0.647,0.913,0.589,1.128,0.792,0.376,0.655,0.618,�k�k��,9.4,�L
2020/09/12,23:50,0.648,0.913,0.588,1.130,0.791,0.375,0.656,0.619,�k�k��,8.7,��
